Location: ČR
(50.0000°N, 15.0000°E)
Time: 07:00:41
(UTC+02:00)

A-11 Canister half - Pass Details

Date: 21 March 2026
Orbit: 1514 x 1685 km, 47.2° (Epoch: 18 April)

Event Time Altitude Azimuth Distance (km) Brightness Sun altitude
Rises 15:46:25 0° 270° (W) 4,868 12.6 22.1°
Reaches altitude 10° 15:49:32 10° 269° (W) 3,899 12.4 21.6°
Maximum altitude 15:59:33 76° 187° (S) 1,724 9.8 20.2°
Drops below altitude 10° 16:09:42 10° 104° (ESE) 3,947 10.8 18.7°
Sets 16:12:52 0° 103° (ESE) 4,930 11.2 18.2°
